ARG1542 SABE-SACO

Flight info

Callsign ARG1542
Flight time 1h 3m
Altitude 32000
Route ATOVO4B ATOVO UW5 ASISA ASISA1U
Aircraft E190/M-SDE3GILORVW/S

Departure

Time 2026-05-05 21:44
Airport Aeroparque Jorge Newbery (SABE)

Arrival

Time 2026-05-05 22:47
Airport Ingeniero Aeronáutico Ambrosio L.V. Taravella International Airport (SACO)
Time Latitude Longitude Altitude Speed Heading
2026-05-05 21:11 -34.55767 -58.41540 26 ft 0 kts 206°
2026-05-05 21:34 -34.55768 -58.41540 26 ft 0 kts 206°
2026-05-05 21:34 -34.55762 -58.41536 26 ft 2 kts 206°
2026-05-05 21:35 -34.55749 -58.41528 26 ft 2 kts 206°
2026-05-05 21:35 -34.55735 -58.41520 26 ft 2 kts 206°
2026-05-05 21:35 -34.55727 -58.41514 26 ft 1 kts 244°
2026-05-05 21:35 -34.55727 -58.41503 26 ft 1 kts 301°
2026-05-05 21:36 -34.55731 -58.41496 26 ft 0 kts 302°
2026-05-05 21:38 -34.55730 -58.41497 26 ft 1 kts 302°
2026-05-05 21:38 -34.55719 -58.41530 26 ft 6 kts 277°
2026-05-05 21:38 -34.55744 -58.41582 26 ft 8 kts 209°
2026-05-05 21:39 -34.55761 -58.41594 26 ft 2 kts 218°
2026-05-05 21:39 -34.55778 -58.41611 26 ft 3 kts 230°
2026-05-05 21:39 -34.55775 -58.41648 26 ft 5 kts 296°
2026-05-05 21:39 -34.55756 -58.41699 26 ft 7 kts 294°
2026-05-05 21:40 -34.55722 -58.41781 26 ft 13 kts 298°
2026-05-05 21:40 -34.55669 -58.41881 26 ft 14 kts 305°
2026-05-05 21:40 -34.55610 -58.41980 26 ft 14 kts 304°
2026-05-05 21:40 -34.55558 -58.42072 26 ft 12 kts 302°
2026-05-05 21:41 -34.55506 -58.42162 26 ft 13 kts 307°
2026-05-05 21:41 -34.55449 -58.42249 26 ft 12 kts 301°
2026-05-05 21:41 -34.55396 -58.42339 26 ft 13 kts 306°
2026-05-05 21:41 -34.55363 -58.42411 26 ft 0 kts 283°
2026-05-05 21:42 -34.55360 -58.42424 26 ft 7 kts 284°
2026-05-05 21:42 -34.55363 -58.42507 26 ft 6 kts 226°
2026-05-05 21:42 -34.55393 -58.42525 26 ft 3 kts 159°
2026-05-05 21:42 -34.55412 -58.42503 26 ft 3 kts 123°
2026-05-05 21:43 -34.55413 -58.42500 26 ft 0 kts 123°
2026-05-05 21:43 -34.55423 -58.42480 26 ft 10 kts 122°
2026-05-05 21:43 -34.55669 -58.42038 26 ft 119 kts 124°
2026-05-05 21:43 -34.56296 -58.40901 197 ft 195 kts 123°
2026-05-05 21:44 -34.56982 -58.39490 1539 ft 190 kts 111°
2026-05-05 21:44 -34.57054 -58.37990 2432 ft 195 kts 72°
2026-05-05 21:44 -34.56146 -58.36685 3054 ft 214 kts 25°
2026-05-05 21:44 -34.54683 -58.36562 3802 ft 226 kts 342°
2026-05-05 21:45 -34.53395 -58.37751 4395 ft 249 kts 302°
2026-05-05 21:45 -34.52897 -58.39798 5193 ft 263 kts 279°
2026-05-05 21:45 -34.52301 -58.41873 6157 ft 269 kts 297°
2026-05-05 21:45 -34.51357 -58.43828 7149 ft 273 kts 302°
2026-05-05 21:46 -34.50284 -58.45737 8096 ft 278 kts 305°
2026-05-05 21:46 -34.49149 -58.47625 9007 ft 283 kts 306°
2026-05-05 21:46 -34.47971 -58.49529 9904 ft 286 kts 307°
2026-05-05 21:46 -34.46757 -58.51463 10752 ft 291 kts 307°
2026-05-05 21:47 -34.45502 -58.53450 11474 ft 300 kts 307°
2026-05-05 21:47 -34.44226 -58.55465 12117 ft 311 kts 307°
2026-05-05 21:47 -34.42880 -58.57590 12790 ft 320 kts 307°
2026-05-05 21:47 -34.41520 -58.59731 13542 ft 326 kts 307°
2026-05-05 21:48 -34.40132 -58.61917 14322 ft 330 kts 307°
2026-05-05 21:48 -34.38731 -58.64121 15062 ft 334 kts 307°
2026-05-05 21:48 -34.37299 -58.66372 15807 ft 338 kts 308°
2026-05-05 21:48 -34.35865 -58.68625 16540 ft 342 kts 308°
2026-05-05 21:49 -34.34415 -58.70901 17249 ft 346 kts 308°
2026-05-05 21:49 -34.32941 -58.73215 17944 ft 349 kts 308°
2026-05-05 21:49 -34.31452 -58.75549 18624 ft 353 kts 308°
2026-05-05 21:49 -34.29952 -58.77900 19287 ft 357 kts 308°
2026-05-05 21:50 -34.28431 -58.80282 19938 ft 360 kts 308°
2026-05-05 21:50 -34.26900 -58.82678 20572 ft 364 kts 308°
2026-05-05 21:50 -34.25335 -58.85126 21193 ft 367 kts 308°
2026-05-05 21:50 -34.23777 -58.87560 21785 ft 371 kts 308°
2026-05-05 21:51 -34.22189 -58.90040 22364 ft 374 kts 308°
2026-05-05 21:51 -34.20604 -58.92514 22918 ft 377 kts 308°
2026-05-05 21:51 -34.18978 -58.95050 23464 ft 380 kts 308°
2026-05-05 21:51 -34.17365 -58.97564 23985 ft 384 kts 308°
2026-05-05 21:52 -34.14077 -59.02684 24987 ft 390 kts 308°
2026-05-05 21:52 -34.12410 -59.05275 25466 ft 393 kts 308°
2026-05-05 21:52 -34.10744 -59.07865 25928 ft 396 kts 308°
2026-05-05 21:53 -34.09041 -59.10510 26382 ft 398 kts 308°
2026-05-05 21:53 -34.07338 -59.13153 26819 ft 401 kts 308°
2026-05-05 21:53 -34.05600 -59.15787 27242 ft 404 kts 309°
2026-05-05 21:53 -34.03816 -59.18368 27654 ft 406 kts 310°
2026-05-05 21:54 -34.01967 -59.21037 28063 ft 409 kts 310°
2026-05-05 21:54 -34.00150 -59.23657 28450 ft 412 kts 310°
2026-05-05 21:54 -33.98302 -59.26320 28831 ft 414 kts 310°
2026-05-05 21:54 -33.96472 -59.28956 29195 ft 417 kts 310°
2026-05-05 21:55 -33.94620 -59.31619 29551 ft 419 kts 310°
2026-05-05 21:55 -33.92732 -59.34334 29903 ft 421 kts 310°
2026-05-05 21:55 -33.90868 -59.37012 30239 ft 424 kts 310°
2026-05-05 21:55 -33.89098 -59.39552 30547 ft 426 kts 310°
2026-05-05 21:56 -33.87196 -59.42281 30866 ft 428 kts 310°
2026-05-05 21:56 -33.85277 -59.45030 31176 ft 430 kts 310°
2026-05-05 21:56 -33.83340 -59.47804 31478 ft 432 kts 310°
2026-05-05 21:56 -33.81419 -59.50555 31772 ft 434 kts 310°
2026-05-05 21:57 -33.79472 -59.53338 32038 ft 431 kts 310°
2026-05-05 21:57 -33.75570 -59.58911 32062 ft 444 kts 310°
2026-05-05 21:58 -33.71551 -59.64642 32028 ft 459 kts 310°
2026-05-05 21:58 -33.67395 -59.70554 32005 ft 463 kts 310°
2026-05-05 21:59 -33.63256 -59.76426 31999 ft 461 kts 310°
2026-05-05 21:59 -33.59129 -59.82274 32000 ft 461 kts 310°
2026-05-05 22:00 -33.54977 -59.88146 32000 ft 461 kts 310°
2026-05-05 22:00 -33.50848 -59.93977 32000 ft 461 kts 310°
2026-05-05 22:01 -33.46702 -59.99822 32000 ft 461 kts 310°
2026-05-05 22:01 -33.42555 -60.05659 32000 ft 461 kts 310°
2026-05-05 22:02 -33.38412 -60.11480 32000 ft 461 kts 310°
2026-05-05 22:02 -33.34242 -60.17332 32000 ft 461 kts 310°
2026-05-05 22:03 -33.30103 -60.23129 32000 ft 461 kts 310°
2026-05-05 22:03 -33.25950 -60.28937 32000 ft 461 kts 310°
2026-05-05 22:04 -33.21801 -60.34729 32000 ft 461 kts 310°
2026-05-05 22:04 -33.17633 -60.40540 32000 ft 461 kts 310°
2026-05-05 22:05 -33.13447 -60.46366 32000 ft 461 kts 310°
2026-05-05 22:05 -33.09262 -60.52183 32000 ft 461 kts 310°
2026-05-05 22:06 -33.05098 -60.57959 32000 ft 461 kts 310°
2026-05-05 22:06 -33.00921 -60.63746 32000 ft 461 kts 310°
2026-05-05 22:07 -32.96741 -60.69526 32000 ft 461 kts 311°
2026-05-05 22:07 -32.92570 -60.75285 32000 ft 461 kts 311°
2026-05-05 22:08 -32.88729 -60.80701 32000 ft 461 kts 309°
2026-05-05 22:08 -32.84652 -60.86581 32000 ft 461 kts 309°
2026-05-05 22:09 -32.80577 -60.92452 32000 ft 461 kts 309°
2026-05-05 22:09 -32.76502 -60.98312 32000 ft 461 kts 309°
2026-05-05 22:10 -32.72415 -61.04181 32000 ft 461 kts 309°
2026-05-05 22:10 -32.68336 -61.10030 32000 ft 461 kts 309°
2026-05-05 22:11 -32.64268 -61.15852 32000 ft 461 kts 309°
2026-05-05 22:11 -32.60169 -61.21711 31999 ft 461 kts 309°
2026-05-05 22:12 -32.56101 -61.27515 32000 ft 461 kts 309°
2026-05-05 22:12 -32.51985 -61.33380 32000 ft 461 kts 309°
2026-05-05 22:13 -32.47903 -61.39187 31999 ft 461 kts 309°
2026-05-05 22:13 -32.43792 -61.45025 31999 ft 461 kts 309°
2026-05-05 22:14 -32.39707 -61.50819 32000 ft 461 kts 309°
2026-05-05 22:14 -32.35616 -61.56610 32000 ft 461 kts 309°
2026-05-05 22:15 -32.31502 -61.62427 32000 ft 461 kts 309°
2026-05-05 22:15 -32.27412 -61.68199 32000 ft 461 kts 310°
2026-05-05 22:16 -32.23296 -61.74000 32000 ft 461 kts 310°
2026-05-05 22:16 -32.19173 -61.79801 32000 ft 461 kts 310°
2026-05-05 22:17 -32.15073 -61.85563 32000 ft 461 kts 310°
2026-05-05 22:17 -32.11550 -61.91876 31989 ft 461 kts 295°
2026-05-05 22:18 -32.09172 -61.98884 32004 ft 461 kts 291°
2026-05-05 22:18 -32.06796 -62.05875 31999 ft 461 kts 292°
2026-05-05 22:19 -32.04419 -62.12846 31999 ft 461 kts 292°
2026-05-05 22:19 -32.02032 -62.19832 31999 ft 461 kts 292°
2026-05-05 22:20 -31.99629 -62.26850 32000 ft 461 kts 292°
2026-05-05 22:20 -31.97261 -62.33752 31985 ft 447 kts 292°
2026-05-05 22:21 -31.94952 -62.40467 31998 ft 441 kts 292°
2026-05-05 22:21 -31.93796 -62.43822 31741 ft 446 kts 292°
2026-05-05 22:21 -31.92630 -62.47205 31199 ft 447 kts 292°
2026-05-05 22:21 -31.91466 -62.50578 30732 ft 445 kts 292°
2026-05-05 22:22 -31.90310 -62.53926 30237 ft 441 kts 292°
2026-05-05 22:22 -31.89924 -62.55043 30078 ft 439 kts 292°
2026-05-05 22:22 -31.87805 -62.61166 29182 ft 432 kts 292°
2026-05-05 22:22 -31.86686 -62.64395 28709 ft 428 kts 292°
2026-05-05 22:23 -31.85734 -62.67141 28310 ft 425 kts 292°
2026-05-05 22:23 -31.84628 -62.70326 27844 ft 422 kts 292°
2026-05-05 22:23 -31.83515 -62.73530 27376 ft 419 kts 292°
2026-05-05 22:23 -31.82422 -62.76672 26917 ft 416 kts 292°
2026-05-05 22:24 -31.81323 -62.79826 26455 ft 413 kts 292°
2026-05-05 22:24 -31.80240 -62.82937 26000 ft 410 kts 292°
2026-05-05 22:24 -31.79166 -62.86015 25550 ft 407 kts 292°
2026-05-05 22:24 -31.78099 -62.89073 25103 ft 405 kts 292°
2026-05-05 22:25 -31.77039 -62.92105 24659 ft 402 kts 292°
2026-05-05 22:25 -31.75976 -62.95145 24214 ft 399 kts 292°
2026-05-05 22:25 -31.74929 -62.98134 23776 ft 396 kts 292°
2026-05-05 22:25 -31.73885 -63.01115 23339 ft 394 kts 292°
2026-05-05 22:26 -31.72856 -63.04049 22909 ft 391 kts 292°
2026-05-05 22:26 -31.72068 -63.06293 22580 ft 389 kts 292°
2026-05-05 22:26 -31.71043 -63.09212 22153 ft 387 kts 292°
2026-05-05 22:26 -31.70029 -63.12098 21730 ft 384 kts 292°
2026-05-05 22:27 -31.69009 -63.14997 21315 ft 382 kts 292°
2026-05-05 22:27 -31.68007 -63.17842 20896 ft 379 kts 292°
2026-05-05 22:27 -31.66972 -63.20702 20468 ft 377 kts 296°
2026-05-05 22:27 -31.65689 -63.23346 20068 ft 374 kts 300°
2026-05-05 22:28 -31.64366 -63.25956 19646 ft 372 kts 301°
2026-05-05 22:28 -31.63034 -63.28551 19242 ft 370 kts 301°
2026-05-05 22:28 -31.61702 -63.31131 18830 ft 368 kts 301°
2026-05-05 22:28 -31.60391 -63.33669 18428 ft 365 kts 301°
2026-05-05 22:29 -31.59082 -63.36196 18027 ft 363 kts 301°
2026-05-05 22:29 -31.57770 -63.38731 17624 ft 361 kts 301°
2026-05-05 22:29 -31.56483 -63.41214 17230 ft 359 kts 301°
2026-05-05 22:29 -31.55177 -63.43731 16831 ft 357 kts 301°
2026-05-05 22:30 -31.53904 -63.46184 16441 ft 355 kts 301°
2026-05-05 22:30 -31.52622 -63.48653 16049 ft 352 kts 301°
2026-05-05 22:30 -31.51363 -63.51078 15663 ft 350 kts 301°
2026-05-05 22:30 -31.50092 -63.53521 15275 ft 348 kts 301°
2026-05-05 22:31 -31.48838 -63.55931 14892 ft 346 kts 301°
2026-05-05 22:31 -31.47586 -63.58336 14509 ft 344 kts 301°
2026-05-05 22:31 -31.46358 -63.60695 14134 ft 343 kts 301°
2026-05-05 22:31 -31.45116 -63.63077 13754 ft 341 kts 301°
2026-05-05 22:32 -31.43895 -63.65418 13382 ft 339 kts 301°
2026-05-05 22:32 -31.42663 -63.67779 13006 ft 337 kts 301°
2026-05-05 22:32 -31.41452 -63.70099 12636 ft 335 kts 301°
2026-05-05 22:32 -31.40252 -63.72395 12270 ft 333 kts 301°
2026-05-05 22:33 -31.39044 -63.74705 11902 ft 331 kts 301°
2026-05-05 22:33 -31.37846 -63.76996 11532 ft 327 kts 301°
2026-05-05 22:33 -31.36671 -63.79240 11151 ft 321 kts 301°
2026-05-05 22:33 -31.35518 -63.81441 10793 ft 313 kts 301°
2026-05-05 22:34 -31.34398 -63.83579 10452 ft 304 kts 301°
2026-05-05 22:34 -31.33313 -63.85648 10130 ft 296 kts 301°
2026-05-05 22:34 -31.32242 -63.87689 9806 ft 289 kts 301°
2026-05-05 22:34 -31.31210 -63.89657 9499 ft 285 kts 301°
2026-05-05 22:35 -31.30171 -63.91634 9198 ft 283 kts 301°
2026-05-05 22:35 -31.29153 -63.93572 8894 ft 282 kts 301°
2026-05-05 22:35 -31.28121 -63.95535 8582 ft 282 kts 301°
2026-05-05 22:35 -31.27105 -63.97466 8273 ft 281 kts 301°
2026-05-05 22:36 -31.26079 -63.99417 7960 ft 280 kts 301°
2026-05-05 22:36 -31.25069 -64.01334 7654 ft 279 kts 301°
2026-05-05 22:36 -31.24052 -64.03267 7345 ft 277 kts 301°
2026-05-05 22:36 -31.23051 -64.05166 7041 ft 276 kts 301°
2026-05-05 22:37 -31.22045 -64.07074 6736 ft 275 kts 301°
2026-05-05 22:37 -31.21042 -64.08975 6432 ft 274 kts 301°
2026-05-05 22:37 -31.20044 -64.10866 6129 ft 272 kts 301°
2026-05-05 22:37 -31.19056 -64.12738 5829 ft 271 kts 301°
2026-05-05 22:38 -31.18071 -64.14603 5531 ft 270 kts 301°
2026-05-05 22:38 -31.17090 -64.16457 5234 ft 269 kts 301°
2026-05-05 22:38 -31.16067 -64.18293 4751 ft 274 kts 310°
2026-05-05 22:38 -31.14491 -64.19439 4255 ft 270 kts 348°
2026-05-05 22:39 -31.12690 -64.19251 4293 ft 262 kts 24°
2026-05-05 22:39 -31.11332 -64.17885 4313 ft 263 kts 57°
2026-05-05 22:39 -31.10329 -64.16090 4360 ft 265 kts 50°
2026-05-05 22:39 -31.08985 -64.14604 4372 ft 264 kts 38°
2026-05-05 22:40 -31.07575 -64.13431 4479 ft 232 kts 31°
2026-05-05 22:40 -31.06129 -64.13102 4455 ft 198 kts 349°
2026-05-05 22:40 -31.05100 -64.13892 4392 ft 172 kts 304°
2026-05-05 22:40 -31.04833 -64.15173 4350 ft 158 kts 271°
2026-05-05 22:41 -31.04804 -64.16424 4329 ft 146 kts 271°
2026-05-05 22:41 -31.04775 -64.17531 4303 ft 131 kts 271°
2026-05-05 22:41 -31.04913 -64.18548 4367 ft 127 kts 237°
2026-05-05 22:41 -31.05606 -64.19144 4571 ft 128 kts 191°
2026-05-05 22:42 -31.06498 -64.19061 4797 ft 130 kts 169°
2026-05-05 22:42 -31.10410 -64.18964 5902 ft 133 kts 191°
2026-05-05 22:42 -31.11316 -64.19170 6157 ft 136 kts 191°
2026-05-05 22:42 -31.12274 -64.19386 5920 ft 140 kts 191°
2026-05-05 22:43 -31.13230 -64.19604 5701 ft 137 kts 191°
2026-05-05 22:43 -31.14161 -64.19818 5452 ft 135 kts 191°
2026-05-05 22:43 -31.15075 -64.20029 5100 ft 135 kts 191°
2026-05-05 22:43 -31.15991 -64.20241 4708 ft 133 kts 191°
2026-05-05 22:44 -31.16884 -64.20448 4299 ft 132 kts 191°
2026-05-05 22:44 -31.17779 -64.20657 3900 ft 130 kts 191°
2026-05-05 22:44 -31.18659 -64.20862 3523 ft 129 kts 191°
2026-05-05 22:44 -31.19542 -64.21027 3139 ft 129 kts 180°
2026-05-05 22:45 -31.20426 -64.21002 2786 ft 126 kts 179°
2026-05-05 22:45 -31.21296 -64.20989 2604 ft 124 kts 179°
2026-05-05 22:45 -31.22160 -64.20977 2478 ft 125 kts 179°
2026-05-05 22:45 -31.23032 -64.20961 2374 ft 126 kts 179°
2026-05-05 22:46 -31.25651 -64.20918 2129 ft 126 kts 179°
2026-05-05 22:46 -31.27089 -64.20895 1997 ft 126 kts 179°
2026-05-05 22:46 -31.27967 -64.20879 1901 ft 127 kts 179°
2026-05-05 22:46 -31.28867 -64.20852 1771 ft 130 kts 179°
2026-05-05 22:47 -31.29787 -64.20836 1623 ft 133 kts 180°
2026-05-05 22:47 -31.30597 -64.20836 1612 ft 97 kts 179°
2026-05-05 22:47 -31.31046 -64.20828 1612 ft 32 kts 179°
2026-05-05 22:47 -31.31298 -64.20834 1612 ft 33 kts 180°
2026-05-05 22:48 -31.31448 -64.20885 1612 ft 17 kts 234°
2026-05-05 22:48 -31.31469 -64.21004 1612 ft 15 kts 266°
2026-05-05 22:48 -31.31503 -64.21095 1612 ft 11 kts 260°
2026-05-05 22:48 -31.31504 -64.21147 1612 ft 7 kts 268°
2026-05-05 22:49 -31.31504 -64.21163 1612 ft 0 kts 268°